Weather History for KNSI - October, 2012

Change the Weather History Date:

Thursday, October 25, 2012

  Actual Average Record
Temperature  
Mean Temperature 68 °F -  
Max Temperature 77 °F 65 °F 86 °F (2007)
Min Temperature 66 °F 54 °F 50 °F (2002)
Cooling Degree Days 4    
Growing Degree Days 18 (Base 50)    
Moisture  
Dew Point 54 °F    
Average Humidity 59    
Maximum Humidity 73    
Minimum Humidity 45    
Precipitation  
Precipitation 0.00 in - - ()
Sea Level Pressure  
Sea Level Pressure 30.04 in    
Wind  
Wind Speed 26 mph (WNW)    
Max Wind Speed 37 mph    
Max Gust Speed 45 mph    
Visibility 7 miles    
Events      
Averages and records for this station are not official NWS values.
T = Trace of Precipitation, MM = Missing Value Source: NWS Daily Summary

Daily Weather History Graph

Daily Weather History Graph

Search for Another Location

Airport or City:

Trip Planner

Search our weather history database for the weather conditions in past years. The results will help you decide how hot, cold, wet, or windy it might be!

Date:

Astronomy

Oct. 25, 2012 Rise Set
Actual Time 7:10 AM PDT 6:12 PM PDT
Civil Twilight 6:45 AM PDT 6:37 PM PDT
Nautical Twilight 6:16 AM PDT 7:06 PM PDT
Astronomical Twilight 5:47 AM PDT 7:35 PM PDT
Moon 3:52 PM PDT (10/25) 3:22 AM PDT (10/25)
Length of Visible Light 11h 52m
Length of Day
11h 01m
Waxing Gibbous, 85% of the Moon is Illuminated
Oct 25
Waxing Gibbous
Oct 29
Full
Nov 6
Last Quarter
Nov 13
New
Nov 20
First Quarter

Hourly Weather History & Observations

Time (PDT) Temp. Dew Point Humidity Pressure Visibility Wind Dir Wind Speed Gust Speed Precip Events Conditions
12:53 AM 66.9 °F 55.0 °F 66% 30.09 in - WNW 23.0 mph 32.2 mph N/A   Clear
1:53 AM 66.0 °F 55.9 °F 70% 30.09 in - WNW 23.0 mph 32.2 mph N/A   Clear
2:53 AM 66.9 °F 54.0 °F 63% 30.08 in - WNW 25.3 mph 33.4 mph N/A   Clear
3:53 AM 66.9 °F 52.0 °F 59% 30.07 in - WNW 23.0 mph 32.2 mph N/A   Clear
4:53 AM 68.0 °F 51.1 °F 55% 30.06 in - WNW 24.2 mph 29.9 mph N/A   Clear
5:56 AM 66.2 °F 51.8 °F 60% 30.09 in 7.0 mi WNW 21.9 mph 31.1 mph N/A   Clear
6:53 AM 67.1 °F 51.1 °F 56% 30.08 in 7.0 mi NW 24.2 mph 31.1 mph N/A   Partly Cloudy
7:53 AM 66.9 °F 50.0 °F 54% 30.08 in 7.0 mi WNW 26.5 mph 35.7 mph N/A   Partly Cloudy
8:53 AM 69.4 °F 48.9 °F 48% 30.09 in 7.0 mi WNW 28.8 mph 39.1 mph N/A   Partly Cloudy
9:53 AM 70.3 °F 48.0 °F 45% 30.09 in 7.0 mi WNW 32.2 mph 39.1 mph N/A   Partly Cloudy
10:53 AM 70.9 °F 50.0 °F 48% 30.08 in 7.0 mi WNW 31.1 mph 43.7 mph N/A   Partly Cloudy
11:53 AM 71.6 °F 51.1 °F 48% 30.07 in 7.0 mi WNW 29.9 mph 44.9 mph N/A   Clear
12:53 PM 71.8 °F 50.0 °F 46% 30.05 in 7.0 mi WNW 31.1 mph 44.9 mph N/A   Clear
1:53 PM 70.9 °F 53.1 °F 53% 30.02 in 7.0 mi WNW 33.4 mph 42.6 mph N/A   Clear
2:53 PM 71.6 °F 54.0 °F 54% 30.00 in 7.0 mi WNW 36.8 mph 44.9 mph N/A   Clear
3:53 PM 69.3 °F 55.9 °F 62% 29.99 in 7.0 mi WNW 33.4 mph 41.4 mph N/A   Clear
4:53 PM 71.1 °F 57.0 °F 61% 29.98 in - WNW 31.1 mph 41.4 mph N/A   Clear
5:53 PM 69.1 °F 57.9 °F 68% 29.97 in - WNW 29.9 mph 38.0 mph N/A   Clear
6:53 PM 66.9 °F 57.9 °F 73% 29.98 in - WNW 32.2 mph 40.3 mph N/A   Clear
7:53 PM 69.1 °F 57.9 °F 68% 29.97 in - WNW 26.5 mph 34.5 mph N/A   Clear
8:53 PM 69.1 °F 57.9 °F 68% 29.97 in - WNW 27.6 mph 34.5 mph N/A   Clear
9:53 PM 69.1 °F 57.0 °F 65% 29.98 in - WNW 23.0 mph 29.9 mph N/A   Clear
10:53 PM 71.1 °F 57.0 °F 61% 29.98 in - NW 18.4 mph - N/A   Clear
11:53 PM 72.0 °F 55.9 °F 57% 29.99 in - WNW 15.0 mph - N/A   Clear